GEFSGL_500_meanwind_000.txt.gz
Wind_Speed
69 73 77 81 85 86 85 82 75 65 54 49 47 46 45 44 43 42 40 39 37 35 32 30 28 26 25 25 24 24 24 22 21 18 19 20 21 22 21 19 22 24 23
75 79 82 84 85 82 73 60 49 43 42 42 41 39 37 36 35 35 34 35 36 35 33 30 27 25 26 27 26 24 24 20 17 17 13 12 14 15 15 18 21 16 21
78 80 79 76 68 56 46 43 41 37 35 33 32 33 35 35 34 33 33 34 34 33 31 29 27 25 25 21 18 17 18 19 17 17 14 14 15 14 16 16 15 17 17
73 70 64 53 44 40 38 35 30 27 27 29 31 31 30 27 25 25 26 25 23 24 22 20 19 18 16 16 18 16 14 14 14 17 19 16 19 19 19 17 15 13 13
61 55 48 40 34 28 23 20 20 21 23 23 22 22 22 20 21 23 21 18 17 16 15 13 13 14 14 15 17 16 15 14 13 14 19 19 16 16 18 19 17 12 12
34 28 24 21 18 16 17 17 19 21 21 21 23 24 25 24 23 22 21 20 17 14 13 12 12 13 12 14 16 14 14 12 12 12 13 9 11 17 20 20 18 15 13
24 21 19 18 17 18 22 24 26 26 26 26 27 27 27 27 26 23 21 20 18 15 14 13 11 10 12 14 11 7 8 12 11 12 12 10 9 14 18 17 13 13 13
17 17 20 21 23 26 28 27 26 26 27 28 28 28 27 27 26 24 22 20 18 15 15 13 11 11 9 9 2 4 6 11 13 13 14 15 16 18 17 17 18 17 15
15 19 23 25 26 27 28 29 29 29 29 28 28 28 28 27 26 26 25 22 19 16 13 11 11 8 6 2 3 5 9 10 12 17 17 16 17 17 15 18 22 17 14
17 21 24 26 28 30 32 33 34 34 33 31 30 28 26 25 23 23 23 21 18 16 13 10 9 5 7 4 3 3 5 2 5 21 21 19 18 16 16 23 25 20 16
19 22 25 28 30 33 35 37 39 38 36 34 32 29 26 23 21 20 19 18 17 16 13 10 7 4 7 7 6 2 6 8 11 18 20 19 17 15 19 24 26 21 20
20 23 26 29 32 35 38 40 38 34 31 31 29 26 24 22 20 18 15 13 14 15 14 12 7 5 6 7 6 6 10 13 14 16 19 18 16 18 20 21 23 24 24
21 25 29 32 35 37 40 40 36 30 29 29 27 25 23 22 21 20 15 10 8 11 14 16 13 8 6 8 7 12 14 18 17 14 14 15 16 18 19 20 21 24 24
23 26 30 33 37 40 41 39 33 29 29 29 29 29 26 24 23 23 21 15 9 7 10 17 18 13 8 10 13 15 18 20 18 17 16 16 17 19 20 21 21 22 20
22 26 30 35 39 41 41 39 32 29 30 31 31 27 25 22 18 17 18 18 12 8 8 14 19 18 15 14 18 20 20 19 15 14 14 15 17 19 20 21 22 21 16
23 27 31 35 39 42 41 39 34 30 32 34 31 26 25 24 22 19 17 14 13 10 9 11 17 20 19 18 22 26 23 19 15 12 12 13 15 19 22 20 19 19 16
24 27 32 35 37 39 40 40 38 34 32 34 32 26 24 25 25 22 21 13 3 6 8 9 15 20 21 19 21 24 23 20 18 18 19 19 19 22 24 22 20 17 16
25 28 32 35 36 37 38 39 39 36 34 35 34 28 24 23 22 20 20 12 5 4 5 7 11 17 21 21 20 19 18 18 18 18 22 24 24 25 24 21 18 16 17
26 29 32 33 35 37 38 38 39 38 35 35 34 29 24 22 20 17 17 14 7 5 6 5 7 15 20 22 21 20 19 17 16 17 21 26 26 26 25 22 19 18 21
26 29 32 35 37 38 38 38 39 39 37 35 32 28 26 23 21 18 15 12 10 7 4 2 5 13 19 21 22 21 20 18 17 18 21 25 27 26 24 23 22 23 25
27 31 35 37 38 39 39 39 39 40 40 37 33 29 27 24 22 20 18 13 9 9 8 8 7 11 18 22 23 23 22 21 21 20 21 23 24 24 24 24 25 26 27
30 34 36 39 40 39 39 40 40 40 41 39 36 32 27 24 22 19 19 18 10 6 7 9 11 9 14 20 22 24 23 23 23 23 23 24 25 25 25 26 26 27 26
30 34 38 40 40 39 39 39 40 40 41 41 38 34 29 26 23 19 19 19 17 10 8 8 8 8 9 13 18 21 22 22 22 23 23 24 25 26 25 26 27 28 27
31 33 36 40 41 40 39 39 40 40 40 42 40 36 31 27 24 21 19 19 18 15 11 11 9 8 8 10 13 17 20 20 20 21 21 22 23 25 25 26 27 28 28
30 34 36 38 40 40 40 40 40 40 40 41 42 39 34 29 27 25 22 19 18 17 14 11 9 8 9 11 14 16 17 18 18 19 20 20 22 24 25 26 26 27 27
30 34 36 37 38 40 40 39 40 40 40 40 41 40 37 33 32 30 27 23 19 18 16 13 11 10 10 13 16 17 17 17 17 16 18 19 21 23 25 26 26 26 26

GEFSGL_500_meanwind_006.txt.gz
Wind_Speed
54 57 61 64 62 58 53 49 44 40 37 36 36 36 35 34 35 35 34 34 33 33 33 32 32 33 34 35 34 31 29 28 25 22 24 25 24 21 20 18 19 19 21
56 59 62 59 52 45 43 41 38 37 35 35 34 34 34 33 32 31 30 29 28 28 29 28 28 28 28 27 26 24 23 23 22 19 21 22 20 16 13 11 12 13 15
58 60 57 48 40 38 38 38 39 39 39 38 38 37 37 36 34 34 33 32 31 30 28 28 27 26 24 22 20 19 19 19 19 17 18 20 19 16 13 11 11 12 12
58 55 46 37 34 34 37 38 39 40 41 41 41 41 40 39 39 38 37 36 35 33 30 28 27 24 21 19 18 18 19 18 18 16 17 19 19 17 14 12 12 12 11
55 44 34 31 31 34 36 36 38 41 43 44 44 44 42 41 40 39 38 37 36 33 32 30 27 24 21 19 18 18 19 19 19 18 17 18 17 17 15 14 13 12 10
42 31 27 28 30 32 33 36 39 42 44 46 45 43 41 38 38 37 36 35 34 31 30 29 27 23 20 19 18 18 18 17 16 16 15 15 14 15 16 14 13 11 8
26 22 23 26 28 30 33 36 40 43 45 46 43 38 35 34 34 34 34 32 31 30 28 28 26 22 19 18 17 16 14 13 12 11 10 10 10 10 11 11 11 9 5
19 20 23 25 27 31 34 38 42 44 45 44 41 37 35 34 34 33 32 31 30 29 27 26 25 22 19 17 15 13 12 12 12 10 9 9 10 9 10 11 10 6 2
18 21 22 25 29 33 37 42 44 44 43 42 39 37 37 36 34 32 30 28 27 27 26 25 23 21 19 16 13 11 11 13 12 10 10 11 11 11 13 13 10 7 4
18 20 24 28 32 36 41 44 45 44 41 39 37 37 37 37 34 32 28 25 24 24 24 24 22 19 17 14 12 10 11 12 10 8 10 14 13 14 16 15 12 8 5
19 23 26 31 35 40 44 46 44 42 41 39 38 37 37 35 33 31 27 22 21 21 22 22 20 17 15 12 10 9 8 6 2 8 15 18 17 15 14 14 12 9 6
22 26 30 34 39 43 45 45 43 42 41 40 38 37 37 35 31 29 27 22 18 18 19 18 17 14 14 12 10 7 3 2 8 15 18 18 16 13 10 12 13 9 7
25 29 33 38 42 44 44 43 42 42 42 41 38 37 36 33 29 28 26 22 18 15 15 14 13 12 12 11 10 8 6 9 13 17 17 16 14 12 13 14 14 12 11
27 32 36 40 43 44 44 42 41 42 42 41 39 35 33 30 26 25 24 23 19 13 10 9 8 10 11 12 12 11 11 12 14 15 16 14 14 15 17 19 17 15 14
29 33 38 41 43 43 43 42 41 41 41 39 37 33 30 27 24 22 22 22 17 8 5 5 5 9 11 14 16 16 14 14 14 15 15 14 15 17 19 20 19 17 17
30 35 39 40 41 42 42 41 41 41 39 37 34 31 28 27 25 23 21 20 13 2 3 3 4 9 12 15 19 18 16 13 14 15 15 15 17 20 21 21 19 18 19
32 36 38 39 41 41 41 42 43 41 38 36 33 30 27 26 24 22 19 15 9 4 4 3 4 7 10 14 19 20 18 16 16 18 19 19 19 21 21 21 19 18 19
33 36 38 40 41 41 41 43 42 40 39 36 32 28 25 23 22 20 17 13 7 6 5 4 5 7 9 12 18 21 21 19 18 18 19 18 18 20 21 21 20 19 18
34 36 39 40 40 41 42 43 41 39 38 35 30 26 23 21 21 20 16 12 9 8 7 5 6 8 9 11 15 20 23 22 20 18 17 17 18 21 21 21 20 17 16
34 37 39 40 40 40 41 41 40 39 37 33 28 24 22 20 20 18 13 10 9 8 7 6 7 9 9 10 13 18 21 23 21 19 17 17 18 21 21 20 18 15 13
35 37 39 39 38 38 40 41 40 39 37 33 29 27 24 21 20 18 13 9 9 9 8 7 7 10 11 11 14 16 18 19 18 17 17 18 20 21 22 20 17 14 13
34 36 37 37 36 37 39 41 40 39 37 34 32 31 27 23 20 18 15 11 9 11 12 11 8 10 12 12 13 14 14 14 14 14 16 18 21 22 22 20 17 14 13
33 34 36 36 35 36 38 39 39 38 36 35 33 32 29 25 22 20 18 15 12 10 11 12 11 11 13 13 12 12 12 12 12 13 15 18 21 22 22 20 18 16 15
32 33 35 35 35 35 37 38 38 37 36 34 33 32 30 26 22 20 19 17 15 13 12 12 12 11 12 13 12 11 10 10 11 13 14 16 18 20 21 20 20 19 19
31 32 34 34 34 35 36 37 37 36 36 35 33 32 30 28 25 22 19 17 15 15 15 14 13 12 12 13 13 12 11 10 10 12 15 16 17 18 20 21 21 21 20
30 32 34 34 34 35 35 36 36 37 36 36 34 33 31 29 27 25 22 19 17 17 18 18 16 15 12 12 13 14 12 11 10 11 13 16 18 18 18 20 20 20 20

GEFSGL_500_meanwind_012.txt.gz
Wind_Speed
59 63 65 66 67 67 67 64 57 49 42 39 38 39 41 44 47 49 51 52 52 52 51 49 47 45 43 41 39 37 35 32 26 22 25 27 28 28 28 26 24 23 24
62 66 66 66 66 65 61 52 43 38 35 36 37 40 44 47 50 52 52 52 52 51 49 47 45 43 42 40 38 36 33 30 24 20 21 23 24 24 24 23 22 22 21
65 66 65 64 63 58 48 39 35 34 35 37 39 43 47 51 52 52 52 51 50 48 47 45 42 41 39 37 36 33 31 28 23 19 20 22 22 21 20 20 20 20 20
64 63 61 60 55 46 38 35 34 35 37 39 43 47 50 52 52 51 50 48 47 46 44 41 39 38 36 34 32 30 28 25 22 20 20 21 21 20 19 18 18 19 19
61 59 57 53 45 39 37 36 37 38 41 44 48 51 52 52 51 49 47 45 45 44 42 39 37 36 33 30 28 26 24 22 21 20 19 19 19 19 17 15 15 15 15
56 55 52 45 40 38 38 38 40 42 46 49 52 53 53 51 49 48 45 43 43 41 39 37 35 32 29 26 24 22 21 19 18 17 16 16 16 15 14 12 11 11 10
53 50 45 40 39 38 39 41 44 47 50 52 53 52 51 50 49 46 44 43 41 38 36 33 31 28 25 22 20 18 17 16 15 13 12 11 11 10 8 7 7 6 5
48 44 40 38 39 40 42 45 48 51 52 53 52 51 50 49 46 44 42 41 38 34 30 28 27 24 22 19 17 15 13 12 11 10 10 9 8 6 5 5 5 4 1
42 39 37 38 40 42 44 47 50 51 51 51 51 50 48 46 44 41 39 35 32 28 25 25 23 20 18 15 14 13 11 10 10 9 9 8 7 6 6 7 6 4 3
37 36 37 39 41 44 46 48 49 49 50 51 51 49 45 43 41 37 33 29 26 24 23 22 20 17 13 11 11 11 10 10 9 9 9 8 8 8 9 9 8 6 5
34 35 38 40 43 45 46 47 48 49 51 51 49 46 43 41 37 33 29 25 23 21 20 19 16 12 8 8 10 11 10 9 9 9 10 11 11 12 13 11 9 8 7
33 35 38 41 43 44 45 46 48 49 49 47 44 43 41 37 33 29 26 24 21 19 17 14 10 6 5 9 11 11 10 10 10 12 14 15 16 16 15 12 10 9 9
33 36 39 41 42 43 44 45 46 46 45 43 41 38 34 31 28 27 25 23 19 16 12 8 4 3 8 12 14 14 13 13 15 17 19 19 18 17 15 13 10 10 12
33 36 39 39 40 42 42 43 43 42 41 40 36 32 28 26 26 25 23 19 15 10 4 1 2 6 11 15 17 17 16 17 19 21 20 19 17 15 14 13 12 13 17
34 36 38 39 40 41 41 41 40 39 38 35 31 28 25 24 23 21 19 14 9 5 3 4 6 9 14 18 20 19 18 19 21 21 19 17 15 15 14 14 15 18 21
33 35 37 39 40 40 40 39 38 37 35 32 30 27 25 23 21 19 16 11 8 7 7 8 9 12 16 20 22 21 20 20 20 19 18 17 16 16 16 17 19 22 25
33 35 37 39 39 39 39 38 36 35 33 32 30 26 23 20 18 16 13 10 9 9 10 12 12 14 18 22 23 23 21 20 19 18 17 17 17 18 18 19 22 26 28
33 35 37 38 38 37 37 36 34 33 32 31 29 26 21 18 15 13 12 11 10 9 11 13 14 15 18 22 24 23 22 20 19 18 18 19 18 19 19 20 24 27 29
33 35 36 36 36 35 35 34 33 32 31 31 28 25 21 18 14 13 13 12 10 9 10 13 15 16 19 22 23 23 22 21 20 19 19 19 19 19 20 22 24 27 28
32 33 34 34 34 34 34 34 33 32 31 29 27 24 22 19 15 13 13 12 10 9 11 13 16 17 19 21 23 23 23 22 20 19 19 19 19 19 20 22 23 24 25
31 31 31 32 32 33 33 33 32 31 30 29 27 24 22 20 16 13 13 13 11 10 11 14 16 17 18 20 22 23 23 22 20 19 19 19 19 19 20 20 20 21 21
29 30 31 31 32 33 32 32 32 31 30 29 28 26 23 20 17 14 13 13 12 11 11 14 16 17 17 18 20 21 21 21 20 19 18 18 19 19 18 18 17 17 17
28 30 31 32 33 33 32 30 30 29 29 29 28 26 24 21 18 16 14 13 13 12 11 13 15 16 16 16 17 18 19 19 18 17 18 18 18 18 17 15 14 14 14
29 31 33 34 34 32 30 28 27 27 27 28 28 27 25 23 21 19 17 15 14 13 12 12 13 14 15 15 15 15 16 16 16 16 16 17 18 18 16 15 13 12 12
32 35 36 36 35 32 29 26 25 24 25 27 28 27 26 23 21 19 19 18 16 14 13 12 12 13 14 14 13 13 13 13 13 14 14 16 18 18 18 16 14 13 12
36 39 39 38 35 31 28 25 24 23 23 25 27 28 27 24 21 18 17 17 17 16 14 12 12 12 13 14 13 12 12 11 11 12 13 15 17 18 19 18 16 15 14

GEFSGL_500_meanwind_018.txt.gz
Wind_Speed
55 52 49 49 50 52 55 56 55 54 52 50 48 46 45 44 45 46 49 51 54 57 60 61 63 63 62 60 58 56 55 54 51 44 40 39 40 40 37 32 29 28 28
51 49 47 49 51 53 53 52 52 51 49 48 46 45 45 46 48 51 54 56 59 61 63 63 63 62 59 57 54 52 50 48 44 39 36 35 36 35 31 28 25 25 25
49 48 50 52 51 51 50 50 50 49 47 46 45 46 47 50 52 55 57 59 61 63 64 63 61 58 55 53 50 47 44 41 39 36 32 31 31 30 26 23 22 22 23
52 52 51 50 50 49 49 49 48 47 46 46 47 48 51 53 56 58 59 60 61 62 61 58 55 52 49 46 43 41 38 36 34 31 27 26 26 25 21 20 20 21 22
50 50 50 50 49 49 48 48 47 46 46 47 49 52 55 57 58 59 60 60 59 57 53 50 48 45 42 39 37 34 32 30 28 25 22 21 21 20 18 18 18 19 20
49 49 49 49 48 48 47 46 46 46 48 50 53 55 57 58 58 58 58 56 54 50 46 44 42 39 35 31 28 27 26 24 22 20 17 17 16 16 16 16 16 17 18
47 47 47 46 47 46 46 46 46 48 51 53 54 55 56 56 56 54 53 51 48 44 40 38 35 32 27 23 22 22 22 19 17 15 14 13 12 12 12 12 13 13 14
44 45 45 46 45 45 45 46 48 51 52 53 54 54 54 53 52 50 48 45 41 38 35 32 30 27 23 21 21 20 17 14 12 11 11 10 9 8 8 8 9 9 10
43 44 44 44 44 45 46 48 50 52 53 53 53 52 51 49 47 44 41 38 36 35 33 30 26 23 20 19 17 15 12 9 9 11 10 8 7 7 6 6 6 5 5
43 43 42 42 43 45 47 49 50 51 52 51 51 49 47 44 42 39 36 35 35 33 30 26 22 19 17 15 13 10 8 9 10 11 10 8 7 7 7 6 5 3 1
41 40 40 41 43 45 48 49 49 50 50 49 48 46 43 40 38 36 35 34 32 29 25 21 17 14 11 9 6 6 8 10 11 11 10 10 10 10 9 8 5 4 4
37 37 39 41 43 46 47 47 47 47 46 45 44 42 40 37 35 33 32 30 27 22 18 14 11 7 4 3 5 8 10 12 13 12 12 12 12 12 11 8 7 7 9
34 36 39 41 43 44 44 44 44 43 42 41 40 38 36 33 31 29 27 24 21 18 14 10 6 2 3 6 9 12 13 14 14 14 13 13 13 12 10 8 9 12 15
33 36 39 41 42 42 41 40 40 39 39 37 35 34 31 28 26 24 22 19 17 15 11 7 5 6 9 12 14 15 16 17 17 16 16 15 14 12 10 10 12 16 18
33 36 38 39 39 38 38 37 37 36 35 33 31 29 27 24 22 19 18 16 15 12 10 7 8 11 15 17 17 18 18 19 19 18 17 16 13 11 10 12 16 19 21
34 35 37 37 36 36 35 35 34 33 32 30 28 26 24 21 19 17 17 16 14 13 11 10 12 15 18 19 20 20 19 19 18 17 16 14 12 11 12 15 19 21 23
33 34 35 36 36 35 34 32 32 31 30 28 27 24 21 18 17 16 16 15 14 14 12 12 15 18 20 21 21 20 18 17 16 14 13 12 13 13 15 18 20 22 23
32 34 35 36 35 33 31 29 28 28 28 27 25 22 18 16 16 16 14 13 13 13 12 13 16 19 21 21 20 19 17 15 14 13 13 13 14 15 18 21 21 23 23
33 35 35 35 33 29 27 25 25 25 26 25 23 20 17 14 15 16 14 12 12 13 13 14 17 19 20 20 19 18 16 14 13 13 13 14 15 17 21 23 23 24 24
34 35 34 32 29 26 23 22 22 23 24 24 21 18 16 14 14 14 13 12 12 13 14 15 17 18 19 19 18 16 14 13 13 13 14 15 17 20 23 25 26 26 25
33 33 31 28 25 22 20 20 21 22 23 22 20 18 16 15 14 15 14 12 12 13 15 16 16 17 17 16 15 14 14 13 13 13 14 16 18 21 24 25 25 24 23
31 30 28 27 24 21 19 19 20 22 23 22 20 19 18 16 15 15 15 13 12 13 15 16 16 16 16 15 15 14 13 13 14 14 14 16 18 20 22 23 22 21 21
31 29 28 26 23 21 19 19 21 23 23 22 20 19 18 17 16 15 15 14 13 13 14 15 16 15 15 15 13 13 13 13 14 15 15 16 18 19 20 20 20 19 18
32 30 28 26 24 22 20 21 22 24 24 23 21 19 17 17 17 16 15 14 13 13 14 15 15 15 15 14 13 12 12 12 13 14 15 16 16 17 17 17 16 16 15
34 33 30 28 26 24 22 23 24 25 26 25 23 21 19 18 17 17 16 15 14 13 14 14 14 14 14 13 12 11 11 11 12 12 14 15 15 15 15 15 14 13 12
36 35 32 30 28 27 25 25 26 26 27 26 25 23 21 20 19 18 17 16 15 14 13 13 13 13 13 12 11 10 10 10 10 11 12 13 13 13 13 13 12 12 11

GEFSGL_500_meanwind_024.txt.gz
Wind_Speed
41 43 45 48 50 51 52 52 53 54 53 53 53 54 54 55 55 56 56 57 58 58 59 59 60 61 62 63 64 65 65 65 64 61 59 55 53 53 53 53 51 49 48
43 46 48 50 52 53 53 54 54 53 53 52 52 53 54 55 55 56 56 57 58 59 59 60 61 62 63 63 62 61 59 57 56 52 50 48 46 45 45 45 43 43 42
47 48 50 53 53 53 54 54 53 52 51 52 52 53 53 54 55 56 57 58 58 59 60 61 61 61 60 58 56 53 50 48 46 44 41 40 39 39 39 38 38 37 36
51 51 52 52 52 53 53 52 51 51 51 52 52 52 53 54 55 56 57 58 59 59 60 60 59 57 53 49 45 43 41 40 38 35 33 32 32 33 33 32 31 30 29
52 51 50 51 53 53 52 51 50 50 51 51 51 52 53 54 55 56 57 58 58 58 57 55 52 48 44 41 39 37 35 33 30 28 27 27 27 27 26 25 24 23 22
50 50 51 53 53 52 50 48 49 50 50 50 51 52 54 55 56 56 57 57 56 54 51 47 44 42 40 38 35 33 30 27 25 24 23 22 22 21 19 18 17 16 16
50 52 52 52 51 49 47 48 48 49 49 50 51 53 54 55 55 55 55 54 51 48 45 42 41 40 37 34 31 28 25 22 21 20 19 18 16 14 12 10 10 11 12
51 53 53 51 48 46 46 47 47 48 49 50 52 53 54 54 53 52 50 47 45 43 41 39 37 34 32 29 25 22 19 17 16 14 13 10 8 6 5 5 6 7 8
54 54 50 46 44 44 45 45 46 47 49 51 51 51 51 51 49 46 43 41 40 38 37 34 30 28 25 21 17 14 12 11 9 7 5 3 1 2 2 3 3 4 6
52 48 43 42 42 42 43 44 46 47 49 49 49 49 47 45 41 39 37 36 35 32 30 27 24 19 15 11 8 6 5 3 2 2 2 3 4 4 4 3 2 2 4
43 40 39 39 40 41 42 44 45 47 47 48 47 44 41 38 36 35 34 32 28 26 24 21 17 12 7 4 2 1 2 4 4 5 6 7 7 7 6 4 2 1 1
36 36 36 37 39 40 42 43 44 45 46 44 42 38 35 33 32 31 29 27 24 22 17 14 9 6 3 3 5 6 7 8 9 9 10 9 9 7 6 5 4 4 2
33 34 35 37 39 41 42 43 44 43 41 38 35 33 31 29 28 27 25 24 22 18 13 9 6 7 8 9 10 10 11 11 12 11 11 10 9 8 7 7 7 6 6
31 33 35 38 40 41 42 42 41 38 34 32 30 29 27 25 24 22 21 21 18 13 9 8 9 10 11 12 13 13 13 13 12 12 11 10 9 8 8 9 10 10 11
31 34 37 39 40 41 40 38 34 30 27 26 25 25 23 21 20 18 17 15 12 8 7 9 11 13 14 15 15 15 14 13 13 12 10 9 9 10 11 12 13 14 15
33 35 38 39 40 38 34 30 26 23 22 22 22 21 18 16 17 15 14 12 9 8 10 12 14 15 16 17 17 16 15 14 12 11 10 10 11 12 14 15 16 16 17
33 36 38 37 35 31 27 22 20 19 20 20 19 16 14 14 14 12 11 9 9 10 12 14 15 16 17 17 16 15 14 13 11 11 11 11 13 15 16 17 18 18 19
34 35 34 31 28 24 20 18 18 19 19 18 16 13 11 12 11 10 11 11 10 11 13 15 16 17 17 16 15 14 13 12 11 11 12 14 16 17 17 18 19 19 19
32 30 28 25 21 18 17 17 17 18 18 16 14 12 10 10 9 10 11 11 11 12 14 15 16 16 16 15 14 13 12 12 12 12 14 16 18 18 19 19 19 19 19
27 25 23 20 18 18 17 17 17 17 16 15 13 11 9 9 10 11 12 12 12 13 15 15 15 15 14 13 13 12 12 12 12 13 15 18 19 19 19 19 19 19 18
23 21 20 18 18 18 18 17 16 15 14 13 11 10 9 10 11 13 13 13 13 14 15 14 14 14 13 12 12 12 12 12 13 14 17 19 20 20 20 20 19 19 18
21 20 19 18 18 18 18 17 16 14 13 12 10 10 11 12 13 14 15 15 14 14 14 14 13 12 11 11 11 11 12 13 14 16 18 20 21 21 21 20 19 19 19
21 20 19 19 18 18 18 18 16 14 13 12 11 11 12 13 15 16 17 16 15 14 14 13 12 12 11 11 11 12 13 14 15 16 17 19 20 20 20 20 20 20 19
23 22 20 20 19 19 18 18 17 15 14 14 13 12 13 14 16 17 17 17 16 15 14 13 12 12 11 11 12 12 13 14 15 16 18 19 19 19 18 18 18 18 17
26 25 23 22 21 20 19 19 18 17 16 15 15 14 14 15 16 17 17 17 16 15 14 13 12 11 12 12 12 13 14 15 15 16 17 18 18 17 16 16 15 15 14
30 29 27 26 25 24 22 21 20 19 19 18 17 17 16 16 17 17 17 17 16 15 14 12 12 11 12 12 12 13 14 14 15 15 16 16 16 15 14 14 13 12 11

GEFSGL_500_meanwind_030.txt.gz
Wind_Speed
42 44 45 46 46 47 48 49 51 53 55 57 58 59 59 58 59 60 61 62 62 62 64 65 67 68 68 69 69 69 68 68 67 64 62 59 56 54 52 52 52 52 52
43 45 46 47 48 50 52 53 54 55 57 58 60 60 60 61 62 61 61 62 62 63 64 66 67 68 68 68 68 67 66 64 62 57 52 49 47 45 44 43 42 42 43
45 47 49 51 52 54 55 55 56 57 58 61 62 62 62 62 61 60 60 61 62 64 65 67 67 68 67 66 65 62 58 55 52 48 44 42 40 39 38 36 36 36 36
50 52 53 54 55 55 55 56 58 59 60 63 64 63 62 61 59 59 60 61 62 64 65 66 66 65 63 60 56 53 50 47 45 42 38 36 33 33 32 31 31 31 32
54 55 56 56 55 55 56 57 60 63 64 65 64 64 62 58 57 58 59 61 62 63 63 63 61 58 55 52 49 46 44 41 38 35 32 29 27 27 28 27 26 26 25
56 56 56 56 56 56 57 60 63 65 67 65 63 59 56 55 55 57 59 60 61 61 60 57 54 51 48 46 44 41 38 35 31 27 24 22 22 22 22 21 20 20 20
55 55 54 55 56 58 59 61 65 66 64 61 57 54 53 53 55 56 57 58 57 56 53 50 47 44 42 39 36 33 30 25 20 17 16 17 17 16 15 14 14 13 14
51 51 52 54 57 59 61 64 66 64 59 55 52 51 51 52 53 54 54 53 51 48 46 43 40 37 34 31 28 24 20 16 13 12 12 12 11 10 9 9 8 8 9
49 49 52 55 58 60 61 62 60 57 52 49 49 49 50 51 51 50 49 46 43 41 39 37 34 30 28 24 19 15 12 9 8 8 7 6 6 6 6 6 6 6 6
47 49 52 56 58 57 56 54 51 48 46 47 48 48 48 47 46 44 41 37 35 34 33 31 27 24 20 16 12 9 7 6 6 5 5 5 5 6 7 7 7 7 7
46 50 53 54 53 50 48 46 45 45 46 46 46 45 43 40 38 35 32 30 28 27 25 22 19 16 13 9 7 6 6 7 7 7 8 8 8 8 9 9 9 9 8
46 48 48 47 46 44 43 43 43 43 43 41 40 38 35 32 30 28 27 25 23 20 17 14 12 10 8 6 7 8 9 9 10 9 9 9 9 10 10 10 10 10 9
43 41 40 39 39 40 41 41 40 39 36 34 32 29 27 25 25 24 23 20 17 14 11 9 7 6 6 8 9 10 11 11 10 10 9 10 11 11 12 12 11 11 9
34 33 34 35 36 37 38 36 34 31 28 26 24 23 22 22 21 20 19 16 13 9 7 6 6 8 10 11 12 12 11 11 10 10 10 11 12 13 14 14 13 13 11
30 31 33 34 34 33 30 27 25 22 21 20 20 20 20 19 18 16 14 12 9 6 5 7 9 11 13 13 12 11 11 10 10 10 11 12 13 14 16 16 15 14 14
30 31 31 30 27 25 22 20 19 18 19 20 20 19 18 16 15 13 10 8 5 5 8 10 12 13 12 11 11 11 10 10 11 11 12 13 14 15 16 17 17 16 16
29 28 26 24 21 20 19 18 17 17 18 18 18 17 15 13 12 9 7 5 6 9 11 12 12 12 11 11 10 10 11 11 11 12 13 13 14 15 17 18 18 18 18
25 24 22 20 18 18 18 17 17 17 17 16 15 14 12 11 9 7 5 6 9 11 12 12 12 12 11 11 10 11 11 11 11 12 13 14 14 16 17 18 18 18 19
24 22 20 18 18 18 17 17 16 15 14 14 12 11 10 9 8 6 7 10 12 13 13 13 12 12 11 11 10 10 11 11 12 12 13 14 14 16 17 18 19 19 20
21 20 19 18 18 17 16 15 14 12 12 11 10 9 9 8 8 9 11 12 13 13 13 13 12 11 11 11 10 10 11 11 12 13 13 13 14 15 16 17 18 19 20
21 19 18 17 17 16 14 13 11 10 9 8 8 8 8 9 10 11 13 13 14 13 13 12 11 11 11 11 11 11 11 11 12 13 14 13 14 14 16 17 18 18 19
20 19 18 17 16 14 13 11 9 8 8 7 7 8 10 11 12 13 14 14 14 13 12 11 10 10 10 10 11 11 11 11 12 13 13 13 13 14 15 17 18 19 19
21 20 19 17 16 13 12 10 9 8 8 7 8 10 11 13 14 14 14 14 13 12 10 10 10 10 10 10 11 11 11 12 12 13 13 14 14 14 15 16 18 19 19
24 22 21 19 16 14 12 11 10 10 9 9 10 11 13 14 15 15 14 13 12 11 11 10 10 10 10 10 10 11 11 12 13 13 13 13 14 14 14 16 17 18 19
27 25 23 21 18 16 14 13 12 12 11 11 12 13 14 15 15 15 14 13 12 11 11 10 10 10 11 11 11 12 12 12 13 14 14 14 15 14 15 15 16 17 18
30 29 27 25 22 19 17 16 15 14 14 13 13 14 15 15 15 15 14 14 13 12 12 11 11 11 11 12 12 12 13 13 14 14 14 14 14 14 14 14 14 15 15

GEFSGL_500_meanwind_036.txt.gz
Wind_Speed
39 41 45 47 50 52 54 55 56 57 58 59 60 61 61 62 62 62 62 62 63 63 63 62 62 64 64 65 66 68 70 72 72 71 71 70 67 64 61 59 56 54 52
41 44 47 50 53 55 57 58 60 61 62 63 63 64 64 63 63 63 62 62 63 63 62 63 63 63 63 64 66 67 69 70 70 67 63 60 58 55 52 50 47 45 43
46 48 51 54 55 57 59 61 62 63 64 64 63 63 63 62 62 61 60 61 62 62 63 63 62 62 62 63 64 65 66 65 63 60 54 50 47 45 42 40 38 36 35
53 54 55 56 58 59 61 62 62 62 62 61 60 60 60 59 59 60 61 61 61 61 61 60 60 60 60 61 61 61 59 56 52 49 44 41 38 36 34 31 28 28 28
57 57 57 57 57 58 58 58 58 59 58 58 58 58 59 59 59 60 61 60 60 58 58 58 58 58 58 58 56 53 49 45 41 38 34 31 29 28 26 24 22 23 24
57 56 56 55 55 55 55 54 54 55 55 56 56 57 57 58 59 59 59 57 56 55 55 55 55 55 54 51 47 43 39 34 30 27 25 23 21 20 19 19 19 19 20
56 55 54 53 51 50 51 51 52 53 54 54 55 57 58 58 58 57 55 54 54 53 53 52 51 49 44 40 36 32 28 25 22 20 18 17 16 16 16 16 17 17 16
52 51 49 48 48 48 48 49 50 51 52 54 56 56 56 55 54 52 51 51 50 50 48 46 43 39 35 30 25 22 20 18 17 16 15 15 15 15 15 15 15 15 15
47 46 45 44 45 45 46 48 50 52 53 54 54 53 51 49 48 47 47 46 46 44 41 38 33 29 25 20 17 15 14 13 13 13 13 14 14 15 15 15 15 15 15
43 42 42 42 43 45 46 49 51 51 50 49 47 45 45 44 44 43 42 40 38 36 33 29 26 21 16 13 11 10 10 10 11 12 13 14 15 16 16 16 16 15 14
39 40 40 42 44 45 46 46 45 44 43 42 41 41 40 40 38 36 33 31 29 27 25 22 18 13 10 8 7 7 8 9 10 12 13 15 16 17 17 17 16 14 12
37 38 39 40 41 40 40 39 39 38 38 37 37 35 34 32 30 29 27 25 23 20 17 14 10 7 5 5 5 7 8 10 11 13 14 16 17 18 17 16 15 13 10
35 35 36 36 36 36 36 36 35 34 33 31 30 29 28 27 26 24 22 19 15 12 10 6 3 3 4 5 7 8 9 11 12 14 15 17 18 18 17 16 15 14 12
32 32 33 33 33 33 32 31 30 28 27 25 24 24 23 23 22 21 17 13 9 5 2 2 4 5 6 7 8 9 10 11 12 14 16 18 18 19 18 17 16 15 14
31 31 31 31 30 28 27 26 24 23 22 21 20 20 20 20 18 15 12 7 3 2 4 6 6 6 7 8 9 10 10 11 12 14 16 18 19 19 18 17 17 16 16
29 29 28 27 26 24 22 21 20 20 19 18 18 18 18 16 13 9 5 1 3 6 7 7 7 7 8 9 10 10 10 11 13 15 17 19 19 19 19 18 18 18 17
27 26 25 24 22 20 19 18 18 17 16 16 16 15 14 11 7 3 2 5 7 8 8 7 7 8 8 9 10 10 11 12 13 15 17 19 19 19 20 20 20 19 19
25 23 22 21 19 18 16 15 14 13 12 12 12 11 9 6 3 4 7 9 9 9 8 8 8 8 9 10 10 11 11 12 14 16 18 19 19 20 20 20 20 20 20
22 21 20 18 16 14 13 12 10 9 8 8 8 7 5 5 6 8 10 10 10 9 9 9 9 9 9 10 11 11 12 13 14 16 18 19 19 20 20 20 20 21 21
20 19 17 16 13 11 10 8 7 6 6 7 7 7 7 9 10 11 11 11 10 10 9 10 10 10 10 11 11 12 12 13 15 17 18 19 19 20 19 19 19 20 22
19 17 15 13 11 9 7 6 6 6 7 7 9 10 11 11 12 12 12 11 10 10 9 10 10 10 11 11 12 12 13 14 15 17 18 19 20 21 20 19 19 20 22
19 17 15 13 11 8 7 7 7 8 9 10 11 12 13 13 13 12 12 11 10 10 9 10 10 10 11 12 12 13 14 15 16 17 18 19 21 22 22 21 20 20 21
21 18 16 14 12 11 10 10 10 10 11 12 13 13 14 13 13 12 11 10 9 9 9 9 10 10 11 12 12 13 14 15 16 17 18 19 20 22 22 22 22 21 21
23 20 18 16 15 14 13 13 12 13 13 14 14 14 14 13 12 11 10 10 10 10 10 10 10 11 12 12 13 14 14 15 15 16 17 19 20 22 23 23 23 23 23
27 24 21 19 18 17 16 15 15 14 14 14 15 14 13 13 12 11 11 10 11 11 11 11 11 12 12 12 13 13 14 14 15 16 17 18 19 20 21 22 22 23 23
30 27 25 23 21 19 18 17 16 15 15 14 14 14 13 12 12 12 12 11 11 11 12 12 12 12 12 13 13 13 14 14 15 15 16 17 17 18 19 20 20 21 21

GEFSGL_500_meanwind_042.txt.gz
Wind_Speed
47 49 49 51 52 52 53 54 54 55 57 58 60 61 62 62 63 63 63 64 64 64 64 64 64 63 63 63 63 64 64 65 64 63 65 65 66 66 65 64 61 58 54
49 51 52 54 55 56 57 57 58 59 59 61 62 62 63 63 63 62 62 62 63 63 63 62 62 62 62 62 63 63 63 63 63 62 60 60 59 58 56 52 49 46 44
54 55 57 58 59 59 60 61 61 62 61 62 62 62 63 62 62 61 61 61 61 61 60 60 60 60 61 61 62 62 62 61 60 58 55 53 51 48 44 41 39 37 36
57 59 61 61 62 63 63 63 63 62 61 61 61 61 61 60 60 61 60 60 59 59 58 58 58 59 60 60 60 59 58 56 55 53 49 45 40 38 36 33 32 32 32
60 62 62 63 63 63 62 62 61 60 60 60 60 59 59 58 58 58 57 56 56 56 57 58 58 58 58 57 56 54 53 51 47 43 38 34 32 31 30 30 29 29 30
62 62 62 61 61 60 59 59 59 58 58 57 57 57 57 56 55 55 55 56 56 56 56 56 56 55 54 53 51 49 46 42 37 32 28 27 27 28 28 28 28 27 27
61 60 58 58 57 57 56 56 56 55 55 54 54 54 54 53 53 54 54 54 54 53 52 51 50 50 49 46 43 40 36 32 27 23 22 24 25 26 26 26 27 27 26
57 57 56 55 55 54 54 53 52 52 51 51 51 51 51 51 52 51 51 51 50 49 48 46 44 42 39 36 32 29 26 23 21 21 22 23 24 24 25 26 26 25 25
54 53 52 52 51 50 50 49 48 48 47 47 47 48 48 48 48 47 47 46 46 44 42 40 37 33 29 25 22 20 19 18 19 20 21 22 24 24 25 24 23 22 22
49 48 48 47 46 45 45 45 45 45 45 45 44 44 44 44 44 43 41 40 39 38 35 32 27 23 19 17 14 13 14 15 17 19 21 22 23 23 22 21 20 19 18
44 42 42 41 41 42 42 42 42 42 42 42 42 41 41 40 38 37 34 33 31 29 27 23 18 14 12 10 10 10 12 14 16 18 20 21 21 21 20 19 18 17 17
38 38 38 38 39 39 39 39 39 39 39 38 37 36 35 33 32 29 27 26 24 22 18 14 10 8 7 8 9 10 12 14 16 18 19 20 20 19 19 18 17 18 17
34 35 35 36 37 37 37 37 37 36 35 33 32 31 29 27 25 23 21 20 17 13 9 6 5 5 6 8 9 11 13 14 16 18 19 19 19 19 20 20 19 19 18
33 34 35 36 36 36 35 34 33 31 29 28 26 25 23 21 19 18 16 13 8 4 2 3 4 5 7 8 9 11 13 15 16 18 19 20 20 21 21 21 21 21 20
33 34 34 34 33 32 30 29 27 25 23 22 21 20 18 17 15 13 9 4 2 3 4 5 5 6 7 8 10 11 13 15 17 18 19 20 21 22 23 22 23 22 22
33 32 31 30 28 26 25 23 21 19 18 18 16 15 14 12 10 6 3 5 7 7 6 6 6 7 8 9 11 12 14 16 17 18 19 20 21 23 23 24 25 25 24
29 28 26 24 23 21 19 17 16 15 14 13 12 11 9 7 5 5 7 9 9 8 7 7 7 8 9 10 12 13 15 17 17 18 19 20 22 23 24 25 26 27 27
26 24 22 20 17 15 14 13 11 10 10 9 9 9 8 7 8 10 10 10 10 9 8 8 8 9 10 11 12 14 16 17 19 19 20 20 22 23 25 26 26 27 28
23 21 18 15 13 11 10 9 8 8 8 8 8 8 9 10 11 12 11 11 10 10 9 9 9 10 11 12 13 15 17 18 19 20 21 22 22 24 25 26 27 27 28
20 18 16 13 10 9 8 7 7 8 8 9 9 11 12 12 13 12 11 11 10 10 10 10 11 11 11 12 14 16 17 18 20 21 22 23 24 24 25 26 27 27 27
19 17 14 12 10 9 9 8 9 9 10 11 12 13 14 14 13 12 11 10 10 10 10 11 11 11 12 13 15 16 18 19 20 21 22 22 23 24 25 26 26 27 27
18 16 14 13 12 11 11 11 11 12 13 14 15 15 15 14 13 12 11 10 10 10 10 11 11 12 12 13 15 16 18 19 20 21 22 22 23 24 25 25 25 26 26
18 17 16 15 14 13 13 13 14 14 15 15 15 15 14 13 12 12 11 11 11 10 10 11 11 12 13 13 15 16 17 19 20 21 22 23 24 25 25 26 25 25 25
21 19 18 17 16 16 15 15 15 15 15 15 15 14 13 13 12 12 12 12 11 11 11 12 12 12 12 13 14 15 16 18 18 19 20 22 23 24 25 25 26 26 25
23 22 21 20 19 18 17 16 16 15 14 14 14 13 13 13 12 12 12 12 11 12 12 12 12 12 12 13 13 14 15 16 17 18 19 20 21 22 22 23 24 24 24
25 24 22 22 21 20 19 18 16 15 14 13 13 13 13 13 13 13 13 12 12 12 12 12 11 12 12 12 13 13 14 15 15 16 17 18 18 19 19 20 20 21 21